Dyersburg, TN

5:58 PM CST on November 18, 2017 (GMT -0600)
Dyersburg Municipal

Weather History for KDYR - August, 2012

Change the Weather History Date:

Sunday, August 12, 2012

  Actual Average Record
Temperature  
Mean Temperature 70 °F -  
Max Temperature 84 °F 85 °F 100 °F (2007)
Min Temperature 55 °F 66 °F 55 °F (2012)
Cooling Degree Days 4    
Growing Degree Days 20 (Base 50)    
Moisture  
Dew Point 50 °F    
Average Humidity 65    
Maximum Humidity 77    
Minimum Humidity 35    
Precipitation  
Precipitation 0.00 in - - ()
Sea Level Pressure  
Sea Level Pressure 30.04 in    
Wind  
Wind Speed 1 mph (SSE)    
Max Wind Speed 7 mph    
Max Gust Speed -    
Visibility 10 miles    
Events      
Averages and records for this station are not official NWS values.
T = Trace of Precipitation, MM = Missing Value Source: NWS Daily Summary

Daily Weather History Graph

Daily Weather History Graph

Search for Another Location

Airport or City:

Trip Planner

Search our weather history database for the weather conditions in past years. The results will help you decide how hot, cold, wet, or windy it might be!

Date:

Astronomy

Aug. 12, 2012 Rise Set
Actual Time 6:14 AM CDT 7:50 PM CDT
Civil Twilight 5:46 AM CDT 8:17 PM CDT
Nautical Twilight 5:13 AM CDT 8:50 PM CDT
Astronomical Twilight 4:38 AM CDT 9:25 PM CDT
Moon 1:31 AM CDT (8/12) 4:11 PM CDT (8/12)
Length of Visible Light 14h 31m
Length of Day
13h 36m
Waning Crescent, 24% of the Moon is Illuminated
Aug 12
Waning Crescent
Aug 17
New
Aug 24
First Quarter
Aug 31
Full
Sep 8
Last Quarter

Hourly Weather History & Observations

Time (CDT) Temp. Heat Index Dew Point Humidity Pressure Visibility Wind Dir Wind Speed Gust Speed Precip Events Conditions
12:15 AM 60.8 °F - 48.2 °F 63% 30.01 in 9.0 mi Calm Calm - N/A   Clear
12:35 AM 62.6 °F - 50.0 °F 63% 30.01 in 10.0 mi Calm Calm - N/A   Clear
12:55 AM 60.8 °F - 48.2 °F 63% 30.02 in 10.0 mi Calm Calm - N/A   Clear
1:15 AM 59.0 °F - 48.2 °F 67% 30.01 in 9.0 mi SE 3.5 mph - N/A   Clear
1:35 AM 60.8 °F - 50.0 °F 68% 30.00 in 10.0 mi Calm Calm - N/A   Clear
1:55 AM 59.0 °F - 48.2 °F 67% 30.01 in 10.0 mi Calm Calm - N/A   Clear
2:15 AM 57.2 °F - 48.2 °F 72% 30.01 in 10.0 mi Calm Calm - N/A   Clear
2:35 AM 57.2 °F - 48.2 °F 72% 30.02 in 10.0 mi ENE 3.5 mph - N/A   Clear
2:55 AM 57.2 °F - 48.2 °F 72% 30.02 in 10.0 mi Calm Calm - N/A   Clear
3:15 AM 57.2 °F - 48.2 °F 72% 30.03 in 10.0 mi Calm Calm - N/A   Clear
3:35 AM 57.2 °F - 48.2 °F 72% 30.02 in 10.0 mi Calm Calm - N/A   Clear
3:55 AM 57.2 °F - 48.2 °F 72% 30.02 in 9.0 mi Calm Calm - N/A   Clear
4:15 AM 57.2 °F - 48.2 °F 72% 30.03 in 10.0 mi Calm Calm - N/A   Clear
4:35 AM 55.4 °F - 48.2 °F 77% 30.03 in 10.0 mi ESE 3.5 mph - N/A   Clear
4:55 AM 55.4 °F - 46.4 °F 72% 30.04 in 10.0 mi Calm Calm - N/A   Clear
5:15 AM 55.4 °F - 48.2 °F 77% 30.04 in 10.0 mi Calm Calm - N/A   Clear
5:35 AM 55.4 °F - 48.2 °F 77% 30.04 in 10.0 mi Calm Calm - N/A   Clear
5:55 AM 55.4 °F - 48.2 °F 77% 30.05 in 10.0 mi Calm Calm - N/A   Clear
6:15 AM 55.4 °F - 48.2 °F 77% 30.06 in 10.0 mi ENE 3.5 mph - N/A   Clear
6:35 AM 55.4 °F - 46.4 °F 72% 30.06 in 10.0 mi Calm Calm - N/A   Clear
6:55 AM 55.4 °F - 46.4 °F 72% 30.06 in 10.0 mi ESE 3.5 mph - N/A   Clear
7:15 AM 57.2 °F - 48.2 °F 72% 30.06 in 10.0 mi Calm Calm - N/A   Clear
7:35 AM 60.8 °F - 51.8 °F 72% 30.06 in 10.0 mi Calm Calm - N/A   Clear
7:55 AM 62.6 °F - 51.8 °F 68% 30.07 in 10.0 mi Calm Calm - N/A   Clear
8:15 AM 62.6 °F - 51.8 °F 68% 30.08 in 10.0 mi Calm Calm - N/A   Clear
8:35 AM 68.0 °F - 53.6 °F 60% 30.08 in 10.0 mi Calm Calm - N/A   Clear
8:55 AM 69.8 °F - 53.6 °F 56% 30.08 in 10.0 mi SSW 3.5 mph - N/A   Clear
9:55 AM 75.2 °F - 57.2 °F 53% 30.07 in 10.0 mi Calm Calm - N/A   Clear
10:15 AM 78.8 °F - 57.2 °F 47% 30.07 in 10.0 mi South 4.6 mph - N/A   Clear
10:35 AM 80.6 °F 80.8 °F 57.2 °F 45% 30.06 in 10.0 mi SSE 3.5 mph - N/A   Clear
10:55 AM 82.4 °F 82.0 °F 57.2 °F 42% 30.06 in 10.0 mi SSE 4.6 mph - N/A   Clear
11:15 AM 84.2 °F 83.5 °F 57.2 °F 40% 30.05 in 10.0 mi SSW 5.8 mph - N/A   Clear
11:35 AM 84.2 °F 82.8 °F 53.6 °F 35% 30.05 in 10.0 mi SW 6.9 mph - N/A   Clear